Location: Cave
(41.8160°N, 12.9350°E)
Time: 13:48:46
(UTC+02:00)

ISS - Pass Details

Date: 08 July 2019
Orbit: 409 x 418 km, 51.6° (Epoch: 23 July)

Event Time Altitude Azimuth Distance (km) Brightness Sun altitude
Exits shadow 03:16:47 24° 298° (WNW) 906 -2.1 -19.6°
Maximum altitude 03:17:57 30° 336° (NNW) 760 -2.2 -19.5°
Drops below altitude 10° 03:20:57 10° 40° (NE) 1,479 0.2 -19.2°
Sets 03:23:11 0° 52° (NE) 2,342 1.3 -19.0°
